Terminal Aerodrome Forecast
Issued by NWS

Home | Current Version | Previous Version | Text Only | Print | Product List | Glossary On
Versions: 1 2 3 4 5 6 7 8 9 10 11 12 13 14 15 16 17 18 19 20 21 22 23 24 25
012
FTUS46 KSEW 252022 AAC
TAFHQM
TAF AMD
KHQM 252022Z 2520/2618 VRB05KT 5SM BR OVC010
      TEMPO 2520/2524 1 1/2SM -DZ BR
     FM260300 VRB02KT 6SM BR OVC010
     FM260900 00000KT 2SM BR OVC004
     FM261200 00000KT 1/2SM FG VV002=

USA.gov is the U.S. government's official web portal to all federal, state and local government web resources and services.